Retour au catalogue

CZ-6A DEB

ActifSSO
NORAD 56659·DEBRIS·🇨🇳 China

Lancé Nov 11, 2022 depuis Taiyuan Satellite Launch Center

Loading…

Prochains Passages (prochaines 24 heures)

TLE

FraisSource: Space-Track

Époque: Sep 14, 2026, 19:42 UTC

1 56659U 22151AGK 26257.82100440  .00002475  00000-0  85097-3 0  9993
2 56659  98.7126 290.1657 0025994  66.4090 293.9822 14.36744326180802

Suivez CZ-6A DEB en temps réel avec AllMySat

Download on the App Store